Location: *
(46.4833°N, 7.6667°E)
Time: 20:15:40
(UTC+00:00)

ATLAS 3B R/B - Pass Details

Date: 27 February 2020
Orbit: 1029 x 1166 km, 63.8° (Epoch: 12 March)

Event Time Altitude Azimuth Distance (km) Brightness Sun altitude
Rises 17:33:53 0° 307° (NW) 3,786 6.4 -4.6°
Reaches altitude 10° 17:37:29 10° 326° (NW) 2,838 5.3 -5.3°
Maximum altitude 17:41:56 18° 8° (N) 2,303 4.3 -6.0°
Drops below altitude 10° 17:46:25 10° 50° (NE) 2,873 4.5 -6.8°
Enters shadow 17:48:14 - 61° (ENE) 3,324 4.7 -7.1°
